Weather History for Stanton, MN

Change the Weather History Date:

Friday, March 8, 2013

  Actual Average (KLVN) Record (KLVN)
Temperature  
Mean Temperature 26 °F -  
Max Temperature 39 °F 35 °F 62 °F (1987)
Min Temperature 12 °F 16 °F -16 °F (2008)
Degree Days  
Heating Degree Days 40    
Moisture  
Dew Point 23 °F    
Average Humidity 75    
Maximum Humidity 93    
Minimum Humidity 64    
Precipitation  
Precipitation 0.00 in - - ()
Sea Level Pressure  
Sea Level Pressure 30.23 in    
Wind  
Wind Speed 6 mph (SSE)    
Max Wind Speed 14 mph    
Max Gust Speed 20 mph    
Visibility 8 miles    
Events Fog    
Averages and records for this station are not official NWS values.
T = Trace of Precipitation, MM = Missing Value Source: NWS Daily Summary

Daily Weather History Graph

Daily Weather History Graph

Search for Another Location

Airport:

Trip Planner

Search our weather history database for the weather conditions in past years. The results will help you decide how hot, cold, wet, or windy it might be!

Date:

Astronomy

Mar. 08, 2013 Rise Set
Actual Time 6:36 AM CST 6:09 PM CST
Civil Twilight 6:07 AM CST 6:38 PM CST
Nautical Twilight 5:33 AM CST 7:12 PM CST
Astronomical Twilight 5:00 AM CST 7:46 PM CST
Moon 4:27 AM CST (3/8) 2:59 PM CST (3/8)
Length of Visible Light 12h 30m
Length of Day
11h 32m
Waning Crescent, 11% of the Moon is Illuminated
Mar 8
Waning Crescent
Mar 11
New
Mar 19
First Quarter
Mar 27
Full
Apr 2
Last Quarter

Hourly Weather History & Observations

Time (CST) Temp. Windchill Dew Point Humidity Pressure Visibility Wind Dir Wind Speed Gust Speed Precip Events Conditions
12:13 AM 23.9 °F 16.8 °F 17.6 °F 77% 30.31 in 10.0 mi South 5.8 mph - N/A   Clear
12:32 AM 22.5 °F 15.1 °F 17.1 °F 80% 30.31 in 10.0 mi South 5.8 mph - N/A   Clear
12:53 AM 23.4 °F 15.2 °F 18.0 °F 80% 30.30 in 10.0 mi SSE 6.9 mph - N/A   Clear
1:12 AM 24.1 °F 18.2 °F 18.1 °F 78% 30.30 in 10.0 mi SSE 4.6 mph - N/A   Clear
1:33 AM 23.2 °F 14.1 °F 17.6 °F 79% 30.30 in 10.0 mi SSE 8.1 mph - N/A   Clear
1:53 AM 23.5 °F 14.5 °F 18.0 °F 79% 30.30 in 10.0 mi SSE 8.1 mph - N/A   Clear
2:12 AM 23.0 °F 15.8 °F 17.8 °F 80% 30.29 in 10.0 mi South 5.8 mph - N/A   Clear
2:33 AM 23.4 °F 14.3 °F 18.1 °F 80% 30.29 in 10.0 mi South 8.1 mph - N/A   Clear
2:53 AM 20.8 °F 13.2 °F 16.3 °F 83% 30.29 in 7.0 mi South 5.8 mph - N/A   Clear
3:12 AM 21.6 °F 15.3 °F 16.7 °F 82% 30.29 in 7.0 mi South 4.6 mph - N/A   Clear
3:33 AM 21.0 °F 13.4 °F 16.5 °F 83% 30.29 in 7.0 mi South 5.8 mph - N/A   Clear
3:53 AM 21.0 °F 13.4 °F 16.7 °F 83% 30.29 in 7.0 mi South 5.8 mph - N/A   Clear
4:13 AM 21.0 °F 12.4 °F 16.5 °F 83% 30.29 in 7.0 mi South 6.9 mph - N/A   Clear
4:33 AM 21.2 °F 14.9 °F 16.5 °F 82% 30.29 in 7.0 mi SSE 4.6 mph - N/A   Clear
4:52 AM 20.7 °F 14.2 °F 16.3 °F 83% 30.29 in 7.0 mi South 4.6 mph - N/A   Clear
5:13 AM 20.1 °F 15.2 °F 16.2 °F 85% 30.29 in 7.0 mi South 3.5 mph - N/A   Clear
5:33 AM 17.8 °F - 13.8 °F 84% 30.29 in 7.0 mi Calm Calm - N/A   Clear
5:52 AM 18.9 °F - 15.8 °F 88% 30.29 in 7.0 mi Calm Calm - N/A   Clear
6:13 AM 17.2 °F - 13.6 °F 86% 30.29 in 7.0 mi Calm Calm - N/A   Clear
6:32 AM 16.3 °F - 13.5 °F 88% 30.29 in 3.0 mi Calm Calm - N/A   Clear
6:53 AM 13.3 °F - 10.2 °F 88% 30.29 in 0.8 mi Calm Calm - N/A   Mist
7:12 AM 13.8 °F - 10.8 °F 88% 30.29 in 0.8 mi Calm Calm - N/A   Mist
7:33 AM 14.0 °F - 10.8 °F 87% 30.29 in 0.5 mi Calm Calm - N/A Fog Light Freezing Fog
7:53 AM 12.0 °F - 8.4 °F 85% 30.29 in 1.8 mi Calm Calm - N/A   Mist
8:12 AM 14.4 °F - 11.3 °F 88% 30.29 in 2.0 mi Calm Calm - N/A   Clear
8:53 AM 17.2 °F - 14.5 °F 89% 30.28 in 4.0 mi Calm Calm - N/A   Clear
9:12 AM 25.7 °F 15.7 °F 23.9 °F 93% 30.27 in 7.0 mi South 10.4 mph - N/A   Clear
9:33 AM 27.1 °F 18.2 °F 22.1 °F 81% 30.27 in 7.0 mi South 9.2 mph - N/A   Clear
9:53 AM 28.4 °F 21.2 °F 21.7 °F 76% 30.28 in 7.0 mi South 6.9 mph - N/A   Clear
10:12 AM 29.5 °F 21.1 °F 22.5 °F 75% 30.28 in 7.0 mi South 9.2 mph - N/A   Clear
10:33 AM 30.7 °F 22.6 °F 23.2 °F 74% 30.29 in 7.0 mi South 9.2 mph - N/A   Clear
10:53 AM 32.0 °F 25.6 °F 23.7 °F 71% 30.29 in 7.0 mi South 6.9 mph - N/A   Clear
11:12 AM 32.2 °F 23.8 °F 25.0 °F 75% 30.28 in 7.0 mi South 10.4 mph - N/A   Clear
11:33 AM 33.8 °F 25.8 °F 25.7 °F 72% 30.27 in 7.0 mi South 10.4 mph - N/A   Clear
11:53 AM 34.3 °F 26.5 °F 26.1 °F 72% 30.27 in 7.0 mi South 10.4 mph - N/A   Clear
12:12 PM 34.9 °F 27.1 °F 26.4 °F 71% 30.27 in 5.0 mi South 10.4 mph - N/A   Haze
12:33 PM 35.6 °F 27.5 °F 26.4 °F 69% 30.26 in 7.0 mi South 11.5 mph - N/A   Clear
12:53 PM 36.0 °F 28.5 °F 26.8 °F 69% 30.25 in 5.0 mi South 10.4 mph - N/A   Haze
1:12 PM 36.5 °F 28.7 °F 27.0 °F 68% 30.23 in 7.0 mi South 11.5 mph - N/A   Clear
1:33 PM 37.0 °F 29.3 °F 27.5 °F 68% 30.22 in 7.0 mi South 11.5 mph - N/A   Clear
1:52 PM 38.1 °F 31.7 °F 27.3 °F 65% 30.21 in 7.0 mi SSE 9.2 mph - N/A   Clear
2:13 PM 38.5 °F 32.7 °F 27.3 °F 64% 30.21 in 7.0 mi SSE 8.1 mph - N/A   Clear
2:33 PM 38.7 °F 32.9 °F 27.3 °F 64% 30.21 in 7.0 mi SE 8.1 mph - N/A   Clear
2:52 PM 38.7 °F 33.6 °F 27.9 °F 65% 30.21 in 7.0 mi SE 6.9 mph - N/A   Clear
3:13 PM 39.2 °F 33.0 °F 28.0 °F 64% 30.22 in 7.0 mi SE 9.2 mph - N/A   Clear
3:33 PM 39.2 °F 32.5 °F 28.2 °F 65% 30.21 in 7.0 mi SSE 10.4 mph - N/A   Clear
3:52 PM 39.2 °F 33.6 °F 28.4 °F 65% 30.21 in 7.0 mi SSE 8.1 mph - N/A   Clear
4:13 PM 39.0 °F 33.4 °F 28.4 °F 66% 30.20 in 7.0 mi SE 8.1 mph - N/A   Clear
4:32 PM 38.3 °F 31.9 °F 28.8 °F 69% 30.20 in 7.0 mi SSE 9.2 mph - N/A   Clear
4:53 PM 38.3 °F 30.9 °F 28.8 °F 69% 30.19 in 10.0 mi SSE 11.5 mph 16.1 mph N/A   Clear
5:13 PM 37.9 °F 33.5 °F 28.8 °F 70% 30.19 in 10.0 mi SE 5.8 mph - N/A   Clear
5:33 PM 37.8 °F 33.3 °F 28.9 °F 71% 30.19 in 7.0 mi SSE 5.8 mph - N/A   Clear
5:52 PM 37.8 °F 31.8 °F 28.9 °F 71% 30.19 in 10.0 mi SSE 8.1 mph - N/A   Clear
6:13 PM 37.6 °F 32.3 °F 28.9 °F 71% 30.18 in 10.0 mi ESE 6.9 mph - N/A   Clear
6:33 PM 37.4 °F 32.8 °F 29.1 °F 72% 30.18 in 10.0 mi ESE 5.8 mph - N/A   Clear
6:52 PM 37.6 °F 32.3 °F 28.8 °F 70% 30.17 in 10.0 mi ESE 6.9 mph - N/A   Clear
7:13 PM 37.4 °F 31.4 °F 28.4 °F 70% 30.16 in 10.0 mi SE 8.1 mph - N/A   Clear
7:33 PM 37.4 °F 32.8 °F 28.2 °F 69% 30.15 in 10.0 mi ESE 5.8 mph - N/A   Clear
7:52 PM 36.9 °F 33.1 °F 28.0 °F 70% 30.13 in 10.0 mi East 4.6 mph - N/A   Clear
8:13 PM 36.5 °F 31.0 °F 28.2 °F 72% 30.13 in 10.0 mi SE 6.9 mph - N/A   Clear
8:33 PM 36.0 °F 29.6 °F 28.0 °F 73% 30.12 in 7.0 mi SE 8.1 mph - N/A   Clear
8:53 PM 35.6 °F 29.9 °F 28.0 °F 74% 30.12 in 7.0 mi SE 6.9 mph - N/A   Clear
9:12 PM 35.8 °F 28.8 °F 28.0 °F 73% 30.12 in 7.0 mi SE 9.2 mph - N/A   Clear
9:33 PM 35.6 °F 28.0 °F 27.9 °F 73% 30.11 in 7.0 mi SE 10.4 mph - N/A   Clear
9:52 PM 35.8 °F 28.3 °F 27.7 °F 72% 30.11 in 10.0 mi SSE 10.4 mph 16.1 mph N/A   Clear
10:13 PM 36.5 °F 28.7 °F 27.3 °F 69% 30.10 in 10.0 mi SE 11.5 mph 19.6 mph N/A   Mostly Cloudy
10:33 PM 36.5 °F 29.2 °F 27.0 °F 68% 30.11 in 10.0 mi SSE 10.4 mph - N/A   Mostly Cloudy
10:52 PM 36.1 °F 28.7 °F 26.6 °F 68% 30.10 in 10.0 mi SSE 10.4 mph - N/A   Clear
11:13 PM 36.1 °F 28.7 °F 26.6 °F 68% 30.09 in 10.0 mi SSE 10.4 mph - N/A   Clear
11:33 PM 36.5 °F 30.3 °F 27.1 °F 69% 30.08 in 10.0 mi SE 8.1 mph - N/A   Scattered Clouds
11:53 PM 36.5 °F 27.8 °F 27.5 °F 70% 30.07 in 10.0 mi SSE 13.8 mph 19.6 mph N/A   Mostly Cloudy